CDT,Max TemperatureF,Mean TemperatureF,Min TemperatureF,Max Dew PointF,MeanDew PointF,Min DewpointF,Max Humidity, Mean Humidity, Min Humidity, Max Sea Level PressureIn, Mean Sea Level PressureIn, Min Sea Level PressureIn, Max VisibilityMiles, Mean VisibilityMiles, Min VisibilityMiles, Max Wind SpeedMPH, Mean Wind SpeedMPH, Max Gust SpeedMPH,PrecipitationIn, CloudCover, Events, WindDirDegrees
2012-5-1,88,82,75,72,70,68,87,70,53,29.97,29.89,29.83,10,10,10,25,14,31,0.00,5,,136
2012-5-2,91,81,71,72,70,68,93,71,49,29.91,29.86,29.82,10,10,10,20,11,29,0.00,3,Fog,142
2012-5-3,91,81,71,73,71,69,93,71,49,29.96,29.90,29.86,10,10,10,21,11,26,0.00,2,,145
2012-5-4,94,84,74,74,72,68,94,69,44,29.97,29.93,29.86,10,10,7,20,12,24,0.00,2,,145
2012-5-5,91,84,76,75,73,72,94,77,59,29.94,29.87,29.80,10,10,9,26,16,33,0.00,3,,149
2012-5-6,87,80,72,74,72,68,94,77,59,29.92,29.86,29.80,10,9,2,22,12,30,0.22,4,Rain-Thunderstorm,114
2012-5-7,91,82,73,74,72,69,94,73,52,29.90,29.84,29.76,10,9,5,20,9,25,0.00,3,,137
2012-5-8,80,75,69,74,70,65,90,82,74,29.96,29.88,29.82,10,10,4,26,13,33,0.08,4,Rain-Thunderstorm,44
2012-5-9,86,77,68,67,65,60,90,69,47,29.99,29.94,29.87,10,10,10,20,9,23,T,4,Rain,54
2012-5-10,86,75,64,74,69,61,93,77,61,29.87,29.80,29.70,10,8,0,47,12,60,2.61,6,Fog-Rain-Hail-Thunderstorm,117
2012-5-11,86,77,67,74,69,66,97,81,65,29.93,29.81,29.71,10,10,8,16,6,22,0.04,3,Rain-Thunderstorm,169
2012-5-12,90,82,73,75,70,63,94,71,48,30.09,30.00,29.94,10,8,4,16,7,20,0.00,4,,356
2012-5-13,86,78,69,67,63,59,84,64,43,30.16,30.09,30.03,10,10,10,16,9,18,0.00,2,,28
2012-5-14,85,76,67,69,64,58,93,68,43,30.09,30.02,29.94,10,10,8,16,7,21,0.00,1,,102
2012-5-15,85,77,69,68,66,64,90,74,58,30.06,30.00,29.94,10,10,9,22,8,26,T,4,Rain,19
2012-5-16,85,75,64,67,64,61,93,69,44,30.07,30.02,29.96,10,10,10,14,7,20,0.00,2,,32
2012-5-17,88,76,63,67,62,54,93,62,31,30.03,29.98,29.93,10,10,8,15,6,17,0.00,1,,164
2012-5-18,87,76,65,70,66,64,93,71,48,29.96,29.91,29.86,10,9,6,18,7,24,0.00,2,Fog,143
2012-5-19,88,79,69,70,68,66,93,72,50,29.97,29.91,29.87,10,10,9,18,11,24,0.00,2,,143
2012-5-20,87,79,70,70,68,65,90,68,46,30.08,30.01,29.94,10,10,10,17,10,22,0.00,2,,118
2012-5-21,88,77,66,69,64,60,93,67,40,30.12,30.08,30.04,10,10,10,13,5,18,0.00,1,,115
2012-5-22,90,77,63,70,65,57,93,64,34,30.04,29.96,29.86,10,10,8,17,8,21,0.00,1,,180
2012-5-23,89,79,69,73,70,66,90,73,56,29.84,29.75,29.65,10,10,10,28,15,36,0.00,2,,157
2012-5-24,89,83,76,73,72,71,87,73,59,29.76,29.68,29.62,10,10,10,30,19,37,0.00,3,,157
2012-5-25,89,83,77,75,74,72,88,76,63,29.95,29.83,29.75,10,10,6,25,18,35,0.00,5,,147
2012-5-26,89,83,77,75,73,70,94,76,57,29.99,29.96,29.92,10,10,7,23,13,28,0.00,4,,138
2012-5-27,90,81,71,73,71,68,93,73,53,29.96,29.91,29.86,10,10,10,21,11,26,0.00,2,,140
2012-5-28,90,81,72,74,72,69,93,74,55,29.91,29.87,29.83,10,10,10,20,11,25,0.00,2,,148
2012-5-29,93,83,72,76,73,69,93,71,49,29.91,29.87,29.82,10,10,10,20,10,25,0.00,3,,152
2012-5-30,91,83,75,75,75,73,94,77,59,29.88,29.81,29.74,10,10,7,23,13,30,0.00,4,,154
2012-5-31,91,84,77,75,74,73,91,77,63,29.84,29.75,29.70,10,10,10,26,15,33,T,5,Rain-Thunderstorm,151